Avoca, PA

3:42 PM EST on December 06, 2019 (GMT -0500)
Wilkes-Barre-Scranton International

Weather History for KAVP - November, 2019

Change the Weather History Date:

Tuesday, November 12, 2019

  Actual Average Record
Temperature  
Mean Temperature 29 °F 43 °F  
Max Temperature 39 °F 51 °F 71 °F (1909)
Min Temperature 19 °F 34 °F 21 °F (1926)
Degree Days  
Heating Degree Days 36 22  
Month to date heating degree days 295 247  
Since 1 July heating degree days 617 850  
Cooling Degree Days 0 0  
Month to date cooling degree days 0 0  
Year to date cooling degree days 846 580  
Moisture  
Dew Point 22 °F    
Average Humidity 75    
Maximum Humidity 93    
Minimum Humidity 50    
Precipitation  
Precipitation 0.34 in 0.10 in 1.09 in (1975)
Month to date precipitation 0.75 1.22  
Year to date precipitation 45.98 33.66  
Sea Level Pressure  
Sea Level Pressure 29.92 in    
Wind  
Wind Speed 8 mph ()    
Max Wind Speed 22 mph    
Max Gust Speed 29 mph    
Visibility 5.8 miles    
Events Fog , Rain , Snow    
T = Trace of Precipitation, MM = Missing Value Source: Averaged Metar Reports

Daily Weather History Graph

Daily Weather History Graph

Search for Another Location

Airport or City:

Astronomy

Nov. 12, 2019 Rise Set
Actual Time 6:47 AM EST 4:46 PM EST
Civil Twilight 6:17 AM EST 5:15 PM EST
Nautical Twilight 5:44 AM EST 5:48 PM EST
Astronomical Twilight 5:12 AM EST 6:21 PM EST
Moon 5:12 PM EST (11/12) 6:35 AM EST (11/12)
Length of Visible Light 10h 57m
Length of Day
9h 58m
Full, 100% of the Moon is Illuminated
Nov 12
Full
Nov 19
Last Quarter
Nov 26
New
Dec 4
First Quarter
Dec 12
Full

Hourly Weather History & Observations

Time (EST) Temp. Windchill Dew Point Humidity Pressure Visibility Wind Dir Wind Speed Gust Speed Precip Events Conditions
12:54 AM 39.0 °F 36.8 °F 34.0 °F 82% 29.71 in 7.0 mi South 3.5 mph - N/A   Clear
1:54 AM 37.9 °F 35.5 °F 34.0 °F 86% 29.74 in 7.0 mi SSW 3.5 mph - N/A   Mostly Cloudy
2:28 AM 37.0 °F 33.3 °F 35.1 °F 93% 29.74 in 3.0 mi South 4.6 mph - 0.04 in Rain Rain
2:39 AM 37.0 °F - 35.1 °F 93% 29.72 in 2.5 mi Calm Calm - 0.06 in Rain Light Rain
2:52 AM 37.4 °F 31.4 °F 33.8 °F 87% 29.72 in 3.0 mi NW 8.1 mph - 0.06 in Rain Light Rain
2:54 AM 37.9 °F 32.1 °F 34.0 °F 86% 29.72 in 3.0 mi NW 8.1 mph - 0.06 in Rain Light Rain
3:18 AM 36.0 °F 29.6 °F 32.0 °F 86% 29.74 in 5.0 mi WNW 8.1 mph - 0.02 in Rain Rain
3:54 AM 35.1 °F 28.6 °F 30.9 °F 85% 29.75 in 6.0 mi NW 8.1 mph - 0.07 in Rain Rain
4:08 AM 35.1 °F 29.3 °F 30.9 °F 85% 29.75 in 6.0 mi NW 6.9 mph - 0.01 in Rain Rain
4:18 AM 34.0 °F 25.5 °F 30.0 °F 85% 29.76 in 6.0 mi NNW 11.5 mph - 0.03 in Rain Light Rain
4:54 AM 34.0 °F 28.8 °F 28.9 °F 82% 29.80 in 3.0 mi Variable 5.8 mph - 0.07 in Snow Light Snow
5:03 AM 34.0 °F 24.6 °F 28.9 °F 82% 29.80 in 2.5 mi NNW 13.8 mph 25.3 mph 0.01 in Snow Light Snow
5:14 AM 33.1 °F 22.2 °F 28.0 °F 82% 29.81 in 1.2 mi NW 17.3 mph 28.8 mph 0.02 in Snow Light Snow
5:34 AM 30.9 °F 22.8 °F 27.0 °F 85% 29.82 in 0.8 mi WNW 9.2 mph - 0.04 in Snow Light Snow
5:52 AM 30.2 °F 21.9 °F 26.6 °F 86% 29.83 in 0.5 mi WNW 9.2 mph - 0.06 in Fog , Snow Snow
5:54 AM 30.0 °F 23.2 °F 26.1 °F 85% 29.84 in 0.5 mi West 6.9 mph - 0.07 in Fog , Snow Snow
6:14 AM 30.0 °F 21.1 °F 26.1 °F 85% 29.84 in 1.0 mi NW 10.4 mph - 0.03 in Snow Light Snow
6:40 AM 30.0 °F 22.4 °F 25.0 °F 82% 29.86 in 0.8 mi NW 8.1 mph - 0.04 in Snow Light Snow
6:50 AM 30.2 °F 20.8 °F 24.8 °F 80% 29.86 in 1.0 mi NW 11.5 mph - 0.05 in Snow Light Snow
6:54 AM 28.9 °F 21.1 °F 25.0 °F 85% 29.88 in 1.2 mi NW 8.1 mph - 0.05 in Snow Light Snow
7:25 AM 28.9 °F 21.1 °F 24.1 °F 82% 29.88 in 2.5 mi NW 8.1 mph - 0.01 in Snow Light Snow
7:32 AM 28.9 °F 21.1 °F 24.1 °F 82% 29.88 in 3.0 mi NW 8.1 mph - 0.01 in Snow Light Snow
7:42 AM 28.9 °F 22.8 °F 24.1 °F 82% 29.89 in 2.5 mi NW 5.8 mph - 0.01 in Snow Light Snow
7:50 AM 28.4 °F 20.4 °F 24.8 °F 86% 29.90 in 4.0 mi NNW 8.1 mph - 0.01 in Snow Light Snow
7:54 AM 28.9 °F 19.8 °F 24.1 °F 82% 29.91 in 3.0 mi NNW 10.4 mph - 0.01 in Snow Light Snow
8:01 AM 28.9 °F 21.1 °F 24.1 °F 82% 29.90 in 1.8 mi NW 8.1 mph - 0.01 in Snow Light Snow
8:03 AM 28.9 °F 22.8 °F 23.0 °F 78% 29.90 in 2.0 mi Variable 5.8 mph - 0.01 in Snow Light Snow
8:13 AM 28.9 °F 19.2 °F 21.9 °F 75% 29.91 in 7.0 mi NNW 11.5 mph 20.7 mph 0.01 in Snow Light Snow
8:40 AM 28.9 °F 18.6 °F 21.9 °F 75% 29.92 in 10.0 mi North 12.7 mph 23.0 mph 0.01 in   Overcast
8:54 AM 28.9 °F 18.6 °F 21.0 °F 72% 29.94 in 10.0 mi NNW 12.7 mph 25.3 mph 0.01 in   Overcast
9:54 AM 28.0 °F 18.6 °F 21.0 °F 75% 29.97 in 10.0 mi North 10.4 mph 20.7 mph N/A   Overcast
10:54 AM 28.0 °F 20.0 °F 19.9 °F 72% 29.99 in 10.0 mi North 8.1 mph - N/A   Overcast
11:54 AM 28.0 °F 16.1 °F 19.0 °F 69% 29.99 in 10.0 mi NNW 16.1 mph 20.7 mph 0.00 in   Overcast
12:54 PM 28.0 °F 18.6 °F 18.0 °F 66% 30.00 in 10.0 mi WNW 10.4 mph - 0.00 in   Overcast
1:33 PM 28.9 °F 19.2 °F 18.0 °F 64% 29.98 in 10.0 mi NW 11.5 mph 18.4 mph N/A   Overcast
1:54 PM 28.9 °F 18.6 °F 18.0 °F 64% 30.00 in 10.0 mi NW 12.7 mph - N/A   Overcast
2:54 PM 28.9 °F 19.2 °F 19.0 °F 67% 30.02 in 9.0 mi North 11.5 mph - 0.00 in   Overcast
3:54 PM 28.0 °F 14.9 °F 17.1 °F 63% 30.04 in 9.0 mi North 19.6 mph 25.3 mph 0.00 in   Mostly Cloudy
4:05 PM 27.0 °F 14.7 °F 18.0 °F 69% 30.02 in 2.5 mi North 16.1 mph - 0.00 in Snow Light Snow
4:13 PM 27.0 °F 14.7 °F 17.1 °F 66% 30.03 in 5.0 mi NNW 16.1 mph 25.3 mph 0.00 in Snow Light Snow
4:22 PM 27.0 °F 16.7 °F 17.1 °F 66% 30.03 in 8.0 mi North 11.5 mph 21.9 mph 0.00 in Snow Light Snow
4:54 PM 25.0 °F 11.3 °F 14.0 °F 63% 30.07 in 9.0 mi North 18.4 mph 26.5 mph 0.00 in   Mostly Cloudy
5:11 PM 24.1 °F 12.5 °F 14.0 °F 65% 30.06 in 10.0 mi North 12.7 mph 20.7 mph N/A   Partly Cloudy
5:54 PM 24.1 °F 12.0 °F 9.0 °F 53% 30.11 in 10.0 mi NNW 13.8 mph 25.3 mph N/A   Clear
6:54 PM 21.9 °F 9.8 °F 6.1 °F 51% 30.15 in 10.0 mi North 12.7 mph - N/A   Clear
7:54 PM 21.0 °F 10.6 °F 6.1 °F 53% 30.17 in 10.0 mi NNW 9.2 mph - N/A   Clear
8:54 PM 21.0 °F 10.6 °F 6.1 °F 53% 30.18 in 10.0 mi NW 9.2 mph - N/A   Clear
9:54 PM 19.9 °F 10.1 °F 5.0 °F 52% 30.20 in 10.0 mi WNW 8.1 mph - N/A   Clear
10:54 PM 19.0 °F 9.0 °F 5.0 °F 54% 30.20 in 10.0 mi WNW 8.1 mph - N/A   Clear
11:54 PM 19.0 °F 9.0 °F 5.0 °F 54% 30.20 in 10.0 mi WNW 8.1 mph 18.4 mph N/A   Clear